Preview of NWS' New Version of Forecast
This preview is not operational and should not be used for support decisions.

Regional Weather Roundup (RWR)

Issued by Gray - Portland, ME (GYX)

                            
000
ASUS41 KGYX 171105
RWRGYX
WEATHER ROUNDUP FOR MAINE AND NEW HAMPSHIRE
NATIONAL WEATHER SERVICE GRAY ME
600 AM EST THU JAN 17 2019

MEZ002-005-006-010-012-015-018-020-021-024-026-027-029-171200-
MAINE
  
CITY           SKY/WX    TMP DP  RH WIND       PRES   REMARKS
PORTLAND       FAIR      11   0  61 N6        30.31R                  
SANFORD        FAIR       9  -3  58 W13       30.30R WCI  -7          
BAR HARBOR     FAIR       6  -5  60 N6        30.26R                  
WISCASSET      FAIR       8  -3  61 CALM      30.32R                  
ROCKLAND       FAIR       8  -4  58 W10G17    30.28R WCI  -6          
FRYEBURG       FAIR       5 -11  47 W6        30.29R                  
LEWISTONAUBURN FAIR       7  -4  60 NW5       30.30R                  
AUGUSTA        FAIR       5  -6  60 CALM      30.29R                  
WATERVILLE     FAIR       3  -7  63 MISG      30.26R                  
BANGOR         FAIR       4  -6  63 NW7       30.28R                  
GREENVILLE       N/A     -5 -15  62 NW17G25   30.10R WCI -27          
MILLINOCKET    FAIR      -1 -13  56 W12G26    30.23R WCI -18          
HOULTON        FAIR      -6 -12  75 W3        30.18R                  
PRESQUE ISLE   FAIR      -5 -12  72 W3        30.18R                  
FRENCHVILLE    FAIR      -9 -18  64 NW12      30.08R WCI -28          
CARIBOU        FAIR      -7 -16  65 CALM      30.13R                  
$$

NHZ002-005-008-009-011-012-014-171200-
NEW HAMPSHIRE
  
CITY           SKY/WX    TMP DP  RH WIND       PRES   REMARKS
PORTSMOUTH     CLEAR     11  -7  42 W12       30.31R WCI  -3          
ROCHESTER      FAIR       9  -5  53 NW10      30.30R WCI  -5          
NASHUA         FAIR      13   1  59 NW12      30.35R WCI  -1          
MANCHESTER     FAIR      12  -1  56 NW6       30.34R                  
CONCORD        FAIR       8  -3  61 N5        30.35R                  
LACONIA        FAIR       5  -5  63 SW3       30.33R                  
PLYMOUTH       FAIR       3  -6  65 SW5       30.33R                  
BERLIN         FAIR       0  -9  65 VRB5      30.24R                  
WHITEFIELD     FAIR     -11 -14  86 CALM      30.28R                  
JAFFREY        FAIR       8   2  76 CALM      30.26R                  
KEENE          FAIR       9   1  70 CALM      30.33R                  
LEBANON        FAIR      -5 -10  79 CALM      30.33R                  
MT WASHINGTON  CLEAR    -15 -26  58 NW61G69     N/A  WCI -55          
$$

VTZ005-007-008-171200-
VERMONT
  
CITY           SKY/WX    TMP DP  RH WIND       PRES   REMARKS
ST JOHNSBURY     N/A     -4  -8  83 MISG      30.32R                  
MONTPELIER     FAIR      -3  -7  82 CALM      30.31R                  
BURLINGTON     FAIR       1  -7  68 NE6       30.39R                  
$$

MAZ007-012-024-CTZ003-RIZ002-NYZ038-NYZ072-171200-
SOUTHERN NEW ENGLAND AND NY
  
CITY           SKY/WX    TMP DP  RH WIND       PRES   REMARKS
BOSTON         FAIR      20   1  43 NW16G22   30.32R WCI   6          
WORCESTER      FAIR      13   1  59 NW9       30.24R                  
NANTUCKET      FAIR      28  14  55 N18       30.27R WCI  15          
PROVIDENCE     FAIR      23   0  36 N10       30.30R WCI  12          
HARTFORD       MOCLDY    19   1  45 N10       30.32R WCI   7          
ALBANY         FAIR      11  -3  53 NW7       30.39R                  
NEW YORK CITY  MOCLDY    26   9  48 NW12      30.35R WCI  16          
$$

ANZ081-ANZ082-ANZ150-NHZ014-MEZ023>029-171200-
COASTAL MARINE OBSERVATIONS
  
STATION/POSITION TIME  TEMP    WIND        PRES    WAVE
                       AIR SEA DIR/SP/G            HT/PER
                 (UTC) (F)     (DEG/KT/KT) (MB)    (FT/S)
MOUNT DESERT ROC 1000   15     300/ 30/ 33 1022.9R
MATINICUS ROCK   1000   15     330/ 20/ 25 1023.8R
ISLE OF SHOALS   1000   15     310/ 22/ 25 1025.1R
JEFFREYS LEDGE   1008      43                N/A     6/ 5
CASHES LEDGE BUO 1050   21 40              1024.1R   7/ 6
$$

.............KEY..............
   WCI - WIND CHILL
   TC  - TEMPERATURE IN CELSIUS
   VSB - VISIBILITY IN MILES
   HX  - HEAT INDEX
   FAIR- INDICATES FEW OR NO CLOUDS BELOW 12,000 FT, WITH NO 
         SIGNIFICANT WEATHER AND/OR OBSTRUCTIONS TO VISIBILITY.